Location: Favi�res
(48.7632°N, 2.7747°E)
Time: 22:09:45
(UTC+00:00)

Daily predictions for brighter satellites

Satellite Brightness Start Highest point End
(mag) Time Altitude Azimuth Time Altitude Azimuth Time Altitude Azimuth
CORIOLIS 4.2 17:08:24 10° SSE 17:13:45 85° ENE 17:19:08 10° NNW
Cosmos 2150 Rocket 4.1 17:08:43 10° SSW 17:14:08 75° ESE 17:19:30 10° NNE
Cosmos 1703 3.7 17:11:37 10° N 17:15:20 38° ENE 17:18:59 10° SE
Lacrosse 4 Rocket 3.0 17:15:49 10° N 17:18:58 19° NE 17:22:08 10° E
Cosmos 1174 3.1 17:16:46 10° SSW 17:19:57 82° SE 17:22:58 10° NE
CZ-4C R/B 4.5 17:18:31 10° NE 17:20:47 17° E 17:23:00 10° SE
Cosmos 405 Rocket 3.0 17:25:06 10° N 17:28:58 47° ENE 17:32:50 10° SSE
PSLV R/B 4.1 17:26:01 10° S 17:30:02 77° WSW 17:34:02 10° NNW
X-37B 1.5 17:27:41 10° WSW 17:30:42 41° S 17:33:43 10° ESE
Cosmos 489 Rocket 4.5 17:25:15 10° NNW 17:31:26 62° ENE 17:37:34 10° SE
Cosmos 1000 Rocket 4.5 17:26:43 10° N 17:32:52 65° ENE 17:39:02 10° SSE
CZ-4B R/B 3.3 17:28:28 10° SSE 17:34:05 69° ENE 17:39:44 10° N
Iridium 4 Rocket 3.9 17:30:17 10° NNE 17:34:26 34° E 17:38:51 10° SE
H-2A R/B 2.1 17:31:01 10° SSE 17:36:22 72° ENE 17:41:50 10° N
MOS 1-B Rocket 4.4 17:32:16 10° NNE 17:38:41 43° E 17:44:17 10° SSE
PAYLOAD B 4.4 17:33:36 10° SSE 17:39:08 81° WSW 17:44:44 10° NNW
Cosmos 389 Rocket 2.9 17:40:26 10° SSW 17:43:48 64° WNW 17:47:13 10° N
ARGOS 3.3 17:38:45 10° SE 17:43:59 54° ENE 17:49:16 10° N
Cosmos 2263 Rocket 2.1 17:39:44 10° NNW 17:45:21 83° ENE 17:50:55 10° SSE
Cosmos 1328 4.1 17:41:42 10° N 17:45:37 46° ENE 17:49:31 10° SSE
Cosmos 2227 4.2 17:40:13 10° NNW 17:46:00 69° ENE 17:51:44 10° SE
Cosmos 2369 4.0 17:40:54 10° SW 17:46:33 73° WNW 17:52:17 10° NNE
Cosmos 724 4.3 17:41:08 10° NW 17:47:10 88° NE 17:53:01 10° SE
Cosmos 1980 Rocket 2.3 17:42:54 10° SSW 17:48:35 88° WNW 17:54:19 10° NNE
Spot 2 4.4 17:45:33 10° SE 17:49:28 43° ENE 17:53:35 10° N
SKYMED 2 3.6 17:45:39 10° NNE 17:49:56 56° E 17:54:12 10° S
Cosmos 371 Rocket 3.9 17:47:50 10° SSE 17:52:14 35° ESE 17:56:41 10° NE
Cosmos 1953 2.3 17:48:17 10° S 17:52:20 89° ENE 17:56:26 10° N
Cosmos 1821 Rocket 4.1 17:46:49 10° S 17:53:14 88° E 17:59:37 10° N
USA 215 3.6 17:47:32 10° NE 17:54:00 65° NNW 18:00:29 10° WSW
CZ-2D R/B 3.9 17:51:25 10° S 17:55:13 59° W 17:59:04 10° NNW
SJ-11-01 4.2 17:50:38 10° SSE 17:55:17 67° ENE 17:59:59 10° N
YAOGAN 1 3.0 17:54:44 10° SE 17:58:47 41° ENE 18:02:52 10° N
Cosmos 1269 Rocket 4.0 17:54:22 10° NNW 17:59:42 90° SW 18:04:59 10° SSE
Cosmos 1455 Rocket 3.0 17:55:38 10° S 18:00:02 77° E 18:04:31 10° NNE
H-2A R/B 2.6 17:57:28 10° SSE 18:01:40 53° ENE 18:05:45 10° N
Cosmos 1125 Rocket 4.3 17:56:36 10° SW 18:01:45 53° WNW 18:06:53 10° NNE
CZ-2C R/B 2.7 17:56:53 10° NNE 18:02:29 63° E 18:07:57 10° S
H-2A R/B 3.0 17:59:21 10° NE 18:02:39 23° E 18:05:57 10° SSE
SL-8 R/B 4.0 17:58:03 10° SW 18:02:43 54° SSE 18:05:47 21° E
Cosmos 1892 3.9 18:00:21 10° NNE 18:03:18 21° ENE 18:03:25 21° ENE
Cosmos 1697 Rocket 4.0 17:59:52 10° WSW 18:05:11 40° NW 18:10:31 10° NNE
CZ-4 R/B 1.6 18:03:58 10° SE 18:07:49 48° ENE 18:11:47 10° N
Tiangong 3.0 18:06:35 10° SW 18:08:55 19° S 18:09:58 16° SE
CSL-04 Rocket 4.5 18:05:17 15° ESE 18:09:05 32° ENE 18:13:57 10° N
Cosmos 1934 Rocket 3.9 18:03:39 10° S 18:09:40 66° E 18:15:42 10° NNE
Cosmos 1908 4.3 18:08:07 10° SSW 18:11:52 47° WNW 18:15:37 10° N
NOSS 2 (A) 4.4 18:09:53 10° NW 18:12:43 52° NE 18:13:09 44° E
Okean O Rocket 2.0 18:09:11 10° S 18:13:29 67° WSW 18:17:51 10° NNW
Cosmos 1544 Rocket 3.5 18:09:37 10° S 18:14:01 63° E 18:18:28 10° NNE
Cosmos 2251 Rocket 3.9 18:12:12 10° NNW 18:17:11 41° ENE 18:20:00 23° ESE
NOSS 3-1 (A) 4.1 18:14:34 10° S 18:18:57 27° ESE 18:20:11 25° E
Cosmos 1844 Rocket 3.2 18:13:48 10° NNW 18:19:02 39° NE 18:21:39 25° ESE
ATLAS 3B R/B 3.7 18:14:09 10° WSW 18:20:25 42° NNW 18:27:01 10° NE
SL-08 RB Rocket 3.6 18:18:08 10° SSE 18:22:41 81° ENE 18:27:19 10° NNW
NOSS 8 (F) 4.3 18:21:01 10° SSW 18:24:21 53° SE 18:24:43 48° E
Meteor 1-4 Rocket 3.4 18:23:20 10° SSE 18:25:30 30° SE 18:25:30 30° SE
IRS-1C Rocket 4.1 18:23:04 10° SSE 18:28:14 60° ENE 18:33:27 10° N
Cosmos 2278 4.2 18:22:46 10° SW 18:28:22 61° WNW 18:34:03 10° NNE
Cosmos 2123 Rocket 4.2 18:23:04 10° NNW 18:29:25 79° W 18:35:42 10° S
Cosmos 407 Rocket 4.4 18:25:06 10° N 18:29:41 28° NE 18:30:24 27° ENE
Okean 1-7 Rocket 3.9 18:26:33 10° NNW 18:30:57 67° W 18:35:20 10° S
Okean-O 2.8 18:29:03 25° SE 18:31:18 50° ENE 18:35:37 10° N
HJ-1C 3.1 18:31:16 35° SSE 18:32:29 73° ENE 18:35:45 10° N
Landsat 5 4.2 18:29:17 10° N 18:33:36 60° WNW 18:38:01 10° SSW
Cosmos 2278 Rocket 4.0 18:31:19 10° N 18:34:31 15° NNE 18:35:14 15° NE
IRAS Rocket 4.1 18:29:51 10° NNE 18:35:27 75° ESE 18:40:58 10° SSW
Cosmos 1602 Rocket 3.4 18:32:40 10° N 18:37:03 70° E 18:40:28 16° SSE
COSMO-SKYMED 1 3.5 18:33:48 10° N 18:38:01 49° WNW 18:42:12 10° SW
Cosmos 1140 Rocket 4.3 18:34:28 10° N 18:39:03 30° NE 18:39:16 30° ENE
NOSS 2-3 (D) 3.6 18:35:19 10° SSW 18:39:15 51° SE 18:40:04 44° E
CENTAUR R/B 4.3 18:35:17 10° NW 18:41:21 27° N 18:45:53 17° NE
SL-16 R/B 2.1 18:36:49 10° SSW 18:42:28 73° ESE 18:48:08 10° NNE
NOSS 3-1 (C) 3.1 18:39:23 10° SSW 18:44:37 68° SE 18:48:20 24° NE
Cosmos 1300 3.4 18:44:55 10° SSW 18:48:38 53° WNW 18:52:24 10° N
Meteor 2-10 Rocket 3.5 18:43:25 10° S 18:48:58 70° E 18:54:20 10° NNE
NOSS 2-3 (C) 3.4 18:47:50 10° SSW 18:51:52 69° SE 18:52:35 57° ENE
Cosmos 304 Rocket 3.6 18:47:21 10° SSW 18:52:06 71° ESE 18:54:51 25° NNE
ATLAS 5 CENTAUR R/B 2.7 18:48:51 10° WSW 18:52:35 37° NW 18:55:23 18° NNE
Cosmos 1408 3.4 18:49:42 10° N 18:52:03 37° N 18:52:03 37° N
Cosmos 2100 Rocket 4.4 18:54:33 38° ENE 18:54:33 38° ENE 18:59:54 10° NNE
Cosmos 2322 Rocket 2.0 18:51:15 10° SSW 18:56:49 72° ESE 19:00:51 20° NNE
Cosmos 1825 4.2 18:54:15 10° N 18:55:17 17° N 18:55:17 17° N
Lacrosse 4 Rocket 1.5 18:53:48 10° NW 18:58:07 77° WSW 18:59:09 51° SSE
Cosmos 1825 Rocket 4.3 18:56:23 10° N 18:59:20 37° NNE 18:59:20 37° NNE
Cosmos 1844 3.7 18:55:57 10° NNW 19:01:45 65° ENE 19:03:00 51° ESE
Cosmos 332 Rocket 3.7 18:59:52 10° SSW 19:04:46 90° SSW 19:07:46 24° NNE
Cosmos 1758 Rocket 3.4 19:01:41 10° N 19:06:02 90° SSE 19:06:22 76° S
X-37B 2.6 19:04:10 10° WSW 19:06:02 25° SW 19:06:02 25° SW
Cosmos 2360 Rocket 2.2 19:03:07 10° S 19:08:09 54° SE 19:08:09 54° SE
DMSP B5D2-2 4.1 19:06:43 10° NNE 19:11:59 78° WNW 19:17:12 10° SSW
Cosmos 614 Rocket 4.0 19:08:04 10° NNW 19:13:09 72° WSW 19:14:50 42° S
Cosmos 1605 Rocket 4.4 19:13:09 10° SSW 19:19:21 63° WNW 19:25:41 10° N
Cosmos 2344 4.3 19:11:43 10° NW 19:20:48 81° SW 19:29:03 25° SSE
Orbus 7S? 3.9 19:17:23 10° NW 19:25:27 71° SW 19:25:39 70° SSW
Cosmos 1980 Rocket 4.5 19:29:10 10° W 19:33:26 21° NW 19:37:44 10° N
USA 215 4.0 19:34:27 34° NE 19:36:29 44° N 19:42:36 10° WNW
H-2A R/B 3.3 19:34:55 10° N 19:38:45 38° WNW 19:42:36 10° SW
CZ-4 R/B 4.1 19:40:21 10° SW 19:43:06 18° W 19:45:54 10° NW
Cosmos 1943 Rocket 4.4 19:42:57 10° N 19:44:35 13° NNE 19:44:35 13° NNE
USA 229 DEB 3.5 19:40:20 10° SW 19:46:45 88° NW 19:47:18 77° NNE
USA 229 3.5 19:40:26 10° SW 19:46:51 89° NW 19:47:20 79° NE
BREEZE-M R/B 4.3 19:56:29 10° W 19:58:37 32° WSW 19:58:37 32° WSW
Cosmos 1844 Rocket 3.7 19:57:47 10° NW 20:02:57 40° WSW 20:03:21 39° WSW
NOSS 3-1 (A) 4.0 20:03:47 10° SW 20:07:41 47° W 20:07:41 47° W
ATLAS 3B R/B 4.4 20:07:38 10° WNW 20:13:01 24° N 20:15:21 20° NNE
Cosmos 2278 Rocket 3.8 20:14:22 10° NNW 20:17:04 28° N 20:17:04 28° N
SL-16 R/B 4.1 20:22:30 10° W 20:27:09 25° NW 20:30:34 15° N
CENTAUR R/B 3.7 20:26:38 10° NW 20:33:03 44° NNE 20:33:03 44° NNE
ATLAS 5 CENTAUR R/B 4.5 20:35:48 10° NW 20:36:55 13° NW 20:36:55 13° NW
Cosmos 2322 Rocket 4.1 20:36:50 10° W 20:41:26 25° NW 20:42:44 23° NNW
Cosmos 2360 Rocket 4.3 20:47:57 10° WSW 20:50:02 20° W 20:50:02 20° W
